Regional Weather Roundup
Issued by NWS Sioux Falls, SD

Home | Current Version | Previous Version | Graphics & Text | Print | Product List | Glossary Off
Versions: 1 2 3 4 5 6 7 8 9 10 11 12 13 14 15 16 17 18 19 20 21 22 23 24 25 26 27 28 29 30 31 32 33 34 35 36 37 38 39 40 41 42 43 44 45 46 47 48 49 50

000
ASUS43 KFSD 300610
RWRFSD

WEATHER ROUNDUP FOR SE SOUTH DAKOTA/SW MINNESOTA/NW IOWA
NATIONAL WEATHER SERVICE SIOUX FALLS SD
100 AM CDT SAT AUG 30 2014

NOTE: "FAIR" INDICATES FEW OR NO CLOUDS BELOW 12,000 FEET WITH NO
SIGNIFICANT WEATHER AND OR OBSTRUCTIONS TO VISIBILITY.


SDZ038>040-050-052>070-300700-
SOUTHEAST SOUTH DAKOTA

CITY           SKY/WX    TMP DP  RH WIND       PRES   REMARKS
CHAMBERLAIN    CLEAR     61  58  89 N6        29.95R
6HR MIN TEMP:  61; 6HR MAX TEMP:  79;

HURON          MOCLDY    63  59  87 N12       29.90R
6HR MIN TEMP:  62; 6HR MAX TEMP:  77;

MADISON        CLOUDY    64  64 100 N12       29.86S
MITCHELL       PTCLDY    63  61  93 NW9       29.89S
6HR MIN TEMP:  63; 6HR MAX TEMP:  70; 6HR PCP:  0.11;

SIOUX FALLS    FAIR      67  64  90 NW9       29.83F
6HR MIN TEMP:  65; 6HR MAX TEMP:  69;

WINNER         FAIR      60  56  86 NW7       29.96S
YANKTON        MOCLDY    66  63  88 NW10      29.86S
$$

MNZ071-072-080-081-089-090-097-098-300700-
SOUTHWEST MINNESOTA

CITY           SKY/WX    TMP DP  RH WIND       PRES   REMARKS
FAIRMONT       CLOUDY    64  61  88 NW6       29.80R
JACKSON        FAIR      64  63  94 NW5       29.81F
LUVERNE        FAIR      64  63  94 CALM      29.84R
MARSHALL       CLOUDY    66  64  94 NW7       29.81S
6HR MIN TEMP:  64; 6HR MAX TEMP:  70;

MONTEVIDEO     FAIR      64  64 100 NW5       29.83R
PIPESTONE      MOCLDY    66  64  94 CALM      29.84S
REDWOOD FALLS  FAIR      67  66  97 NW7       29.80R
TRACY          FAIR      66  65  97 CALM      29.82S FOG
WINDOM         CLOUDY    66  64  94 CALM      29.81S
WORTHINGTON    MOCLDY    64  63  94 W3        29.84R
$$

IAZ001>003-012>014-020>022-031-032-NEZ013-014-SDZ071-300700-
NORTHWEST IOWA

CITY           SKY/WX    TMP DP  RH WIND       PRES   REMARKS
CHEROKEE       CLOUDY    66  66 100 W3        29.83R
DENISON        FAIR      64  64 100 CALM      29.81S FOG
ESTHERVILLE    MOCLDY    66  66 100 CALM      29.80R FOG
LE MARS          N/A     64  64 100 CALM      29.84S
ORANGE CITY    MOCLDY    64  63  94 W5        29.84R
SHELDON        CLOUDY    63  63 100 W6        29.83R FOG
SIOUX CITY     NOT AVBL
SPENCER        FAIR      64  62  93 CALM      29.81S
6HR MIN TEMP:  64; 6HR MAX TEMP:  70; 6HR PCP:  0.03;

STORM LAKE     FOG       66  66 100 W6        29.82S VSB 1/4
$$

ABBREVIATIONS USED IN REMARKS
   TC - TEMPERATURE IN CELSIUS
  WCI - WIND CHILL INDEX
   HX - HEAT INDEX
  VSB - VISIBILITY




USA.gov is the U.S. government's official web portal to all federal, state and local government web resources and services.